Location: Desert Center
(33.7130°N, 115.4010°W)
Time: 11:23:20
(UTC-07:00)

Daily predictions for brighter satellites

Satellite Brightness Start Highest point End
(mag) Time Altitude Azimuth Time Altitude Azimuth Time Altitude Azimuth
Cosmos 1844 4.1 20:02:25 10° NNW 20:08:10 72° WSW 20:13:55 10° SSE
CZ-4 DEB 3.2 20:09:11 10° SSE 20:12:16 43° ENE 20:15:22 10° N
Cosmos 494 Rocket 4.0 20:12:12 10° S 20:17:11 56° ESE 20:22:11 10° NNE
Hubble Space Telescope 3.2 20:17:08 10° SW 20:18:35 12° SSW 20:20:02 10° S
Cosmos 1975 4.1 20:15:09 10° NNW 20:18:57 43° W 20:22:45 10° SSW
Cosmos 2058 Rocket 3.9 20:16:04 10° NNE 20:20:00 32° E 20:23:53 10° SE
YAOGAN 11 4.4 20:17:09 10° SSE 20:21:23 50° ENE 20:25:34 10° N
Cosmos 2233 Rocket 4.0 20:15:19 10° N 20:21:35 84° E 20:27:46 10° S
Aureole 2 Rocket 3.1 20:21:30 10° S 20:25:20 40° ESE 20:28:52 10° NNE
GEOS 3 Rocket 3.8 20:20:13 10° SE 20:25:24 62° NE 20:30:34 10° NNW
ALOS 2.3 20:24:48 10° SSE 20:29:29 86° ENE 20:34:10 10° N
Cosmos 2237 Rocket 4.1 20:25:29 10° SW 20:30:32 34° WNW 20:35:39 10° N
Cosmos 1464 Rocket 4.4 20:25:55 10° N 20:31:44 44° E 20:37:35 10° SSE
deb Chang Zheng 4 3.7 20:29:29 10° NNE 20:33:48 54° E 20:38:04 10° S
ATLAS CENTAUR R/B 4.5 20:37:48 10° WSW 20:41:51 25° NW 20:45:59 10° N
Cosmos 1606 Rocket 3.7 20:37:58 10° N 20:42:24 81° W 20:46:47 10° S
Cosmos 2278 Rocket 2.9 20:36:55 10° NNW 20:42:26 53° WSW 20:47:55 10° S
CZ-2D R/B 4.3 20:40:25 10° S 20:44:08 45° W 20:47:54 10° NNW
Cosmos 1331 Rocket 4.0 20:40:43 10° NNW 20:45:55 73° ENE 20:50:28 13° SSE
H-2A R/B 2.3 20:42:30 14° SSE 20:45:59 52° ENE 20:50:12 10° N
Atlas Centaur 2 3.1 20:42:13 10° WSW 20:49:17 53° SSE 20:57:26 10° E
SeaSat 1 3.7 20:47:09 15° ESE 20:50:16 28° ENE 20:54:25 10° N
Cosmos 2034 Rocket 4.4 20:44:17 10° N 20:50:24 47° E 20:55:17 16° SSE
Cosmos 1666 3.1 20:49:23 10° N 20:53:09 46° E 20:55:25 21° SE
Cosmos 1626 Rocket 3.9 20:50:39 12° SSE 20:54:34 47° E 20:58:49 10° NNE
Cosmos 2369 Rocket 4.3 20:53:37 10° NE 20:55:23 11° NE 20:57:10 10° ENE
Meteor 1-15 Rocket 4.3 20:50:11 10° N 20:55:44 61° E 21:00:13 16° SSE
Cosmos 1302 Rocket 4.3 20:51:00 10° N 20:56:06 51° ENE 20:59:29 21° SE
Cosmos 1939 Rocket 3.3 20:53:32 20° SE 20:56:12 49° ENE 21:00:12 10° N
SL-16 R/B 3.3 20:52:54 10° SW 20:58:19 46° WNW 21:03:45 10° N
CZ-4B R/B 4.3 20:55:44 10° NE 21:00:17 32° E 21:02:50 21° SE
OAO 3 Copernicus 4.2 21:02:03 10° W 21:07:08 89° S 21:10:17 23° ESE
Cosmos 1743 4.2 21:03:38 10° NNW 21:07:11 36° W 21:10:41 10° SSW
COSMOS 2455 2.9 21:01:29 10° S 21:07:17 53° ESE 21:13:07 10° NE
Cosmos 2228 3.0 21:04:44 10° N 21:09:09 81° E 21:12:02 21° S
USA 186 4.5 21:12:59 10° SW 21:14:37 14° W 21:16:13 10° WNW
APEX 3.8 21:10:49 10° NNW 21:15:09 77° ENE 21:18:07 27° SSE
Cosmos 1515 4.4 21:18:53 34° E 21:19:06 34° E 21:22:38 10° NNE
BREEZE-M DEB (TANK) 1.9 21:17:10 10° NW 21:19:20 54° NE 21:19:20 54° NE
ERS-1 Rocket 3.7 21:16:59 12° S 21:21:30 51° W 21:26:23 10° NNW
ATLAS 3B R/B 3.3 21:14:30 10° S 21:21:31 40° ESE 21:28:30 10° NE
Abrixas rocket 2.6 21:20:22 10° NW 21:23:44 56° NE 21:24:24 46° E
Envisat 2.9 21:22:54 27° SSE 21:25:44 85° ENE 21:30:51 10° N
Cosmos 1603 3.9 21:21:36 10° SSW 21:27:12 72° WNW 21:32:49 10° NNE
Lacrosse 4 Rocket 3.4 21:35:28 14° ENE 21:35:28 14° ENE 21:36:18 10° NE
YAOGAN 6 3.0 21:36:49 45° ENE 21:36:50 45° ENE 21:40:25 10° N
USA 234 3.9 21:33:09 23° E 21:36:53 46° NE 21:43:06 10° NNW
ISS -2.5 21:35:00 10° WSW 21:38:11 52° NW 21:41:23 10° NE
USA 81 4.2 21:42:42 10° N 21:47:51 52° E 21:48:44 47° ESE
Cosmos 1943 3.1 21:49:01 33° S 21:51:38 72° ESE 21:57:18 10° NNE
CZ-4 R/B 3.8 21:48:21 10° NNE 21:53:22 76° ESE 21:54:39 50° S
Cosmos 1461 2.9 21:50:43 10° NW 21:54:54 64° WSW 21:55:10 62° SW
SPOT 5 3.4 21:54:50 34° SSW 21:56:17 48° W 22:00:30 10° NNW
Milstar 3 Cent rocket 3.5 21:51:36 10° W 21:56:30 23° SSW 21:56:46 23° SSW
MetOp-A 4.3 21:58:01 40° S 21:59:54 69° WSW 22:05:15 10° NNW
Landsat 7 4.5 22:02:10 39° ENE 22:02:10 39° ENE 22:06:31 10° N
SL-23 DEB 4.4 21:56:35 10° SW 22:03:54 72° SE 22:06:43 22° NE
Cosmos 1943 Rocket 4.0 22:00:45 10° NNE 22:04:11 16° ENE 22:05:02 16° ENE
Cosmos 1825 Rocket 3.5 22:03:51 74° SSW 22:04:14 85° W 22:08:42 10° N
SL-08 RB Rocket 3.8 22:05:28 60° ENE 22:05:28 60° ENE 22:09:54 10° N
Cosmos 1992 Rocket 3.9 22:02:41 10° NNW 22:07:54 71° ENE 22:08:21 66° ESE
H-2A R/B 2.8 22:09:27 35° ENE 22:09:27 35° ENE 22:13:50 10° N
SPOT 1/Viking Rocket 3.7 22:17:00 55° SSW 22:17:52 64° WSW 22:22:59 10° NNW
Terra 2.7 22:18:26 38° NE 22:18:26 38° NE 22:22:18 10° N
Cosmos 1190 Rocket 4.2 22:20:42 48° SW 22:22:07 70° WNW 22:27:26 10° NNE
Geosat 4.2 22:18:06 10° NNE 22:23:07 69° WNW 22:24:33 46° SW
CZ-4C R/B 3.9 22:24:36 60° N 22:24:36 60° N 22:28:03 10° NNW
Cosmos 2142 Rocket 4.4 22:19:25 10° N 22:25:43 81° W 22:26:59 59° S
SeaSat 1 3.6 22:26:57 30° SW 22:27:38 32° WSW 22:32:02 10° NW
ARGOS 3.4 22:33:36 55° SW 22:34:10 58° W 22:39:32 10° NNW
DMSP B5D2-2 4.2 22:29:45 10° NNE 22:34:23 64° NE 22:34:23 64° NE
Cosmos 1634 Rocket 4.2 22:30:59 10° NNW 22:37:03 62° W 22:38:19 51° SW
Cosmos 676 Rocket 4.0 22:38:47 80° NNW 22:38:47 80° NNW 22:43:53 10° NNE
Atlas Centaur 2 2.9 22:30:59 10° W 22:38:59 71° S 22:40:54 55° ESE
Cosmos 2369 Rocket 2.1 22:34:29 10° NNW 22:40:04 87° NW 22:40:04 87° NW
Cosmos 1953 4.4 22:44:10 10° N 22:45:51 22° NNE 22:45:51 22° NNE
COSMOS 2406 3.9 23:03:09 46° NE 23:03:09 46° NE 23:07:11 10° NNE
Cosmos 2279 Rocket 4.0 22:55:19 10° NNW 23:01:32 70° W 23:01:43 69° WSW
Cosmos 2263 4.4 22:58:33 10° NNW 23:03:26 66° NW 23:03:26 66° NW
Lacrosse 4 Rocket 3.6 23:11:43 21° NW 23:11:43 21° NW 23:14:46 10° N
ATLAS 3B R/B 4.0 23:05:02 10° WSW 23:12:13 41° NW 23:19:19 10° NNE
USA 234 3.9 23:20:29 42° WSW 23:20:29 42° WSW 23:26:01 10° WNW
Cosmos 1607 4.4 23:24:11 54° NE 23:24:11 54° NE 23:28:55 10° NNE
USA 238 DEB 4.3 23:45:41 46° W 23:47:09 53° NW 23:54:03 10° NNE
USA 238 4.3 23:45:51 46° W 23:47:15 53° NW 23:54:10 10° NNE
Cosmos 1943 Rocket 3.2 23:42:50 10° NNW 23:46:33 41° NW 23:46:33 41° NW
H-2A R/B 4.1 23:50:05 18° WNW 23:50:05 18° WNW 23:52:26 10° NW
Meteor 2-5 Rocket 4.5 23:53:38 52° N 23:53:38 52° N 23:57:58 10° N
Terra 4.3 23:57:19 15° WNW 23:57:19 15° WNW 23:58:48 10° NW
